Location: Gleizolles
(44.4833°N, 6.7667°E)
Time: 00:56:20
(UTC+00:00)

Vanguard 1 Rocket - Pass Details

Date: 24 June 2024
Orbit: 650 x 4220 km, 34.3° (Epoch: 24 July)

Event Time Altitude Azimuth Distance (km) Brightness Sun altitude
Rises 05:42:50 0° 278° (W) 7,105 11.4 17.4°
Reaches altitude 10° 05:47:14 10° 273° (W) 6,452 11.2 18.2°
Maximum altitude 06:08:45 50° 207° (SSW) 4,887 11.1 21.9°
Drops below altitude 10° 06:31:44 10° 141° (SE) 6,792 12.3 25.9°
Sets 06:36:36 0° 136° (SE) 7,478 12.5 26.8°
